This is the latest recevied weather packets stored in our database for station/object K2CCS. If no packets are shown the sender has not sent any weather packets the latest 10 day(s).
| Time | Temp. | Humidity | Pressure | Rain* | Wind** | Luminosity | Snow |
|---|---|---|---|---|---|---|---|
| 1777914801 | 19.44° C | 43% | 1011.2 hPa | 0 mm | - | 312 W/m² | - |
| 1777914498 | 18.89° C | 44% | 1011.2 hPa | 0 mm | - | 711 W/m² | - |
| 1777914195 | 18.89° C | 44% | 1011.2 hPa | 0 mm | - | 221 W/m² | - |
| 1777913891 | 18.33° C | 45% | 1011.3 hPa | 0 mm | - | 733 W/m² | - |
| 1777913588 | 18.33° C | 45% | 1011.2 hPa | 0 mm | - | 797 W/m² | - |
| 1777913284 | 18.33° C | 45% | 1011.7 hPa | 0 mm | - | 298 W/m² | - |
| 1777912981 | 18.33° C | 45% | 1011.5 hPa | 0 mm | - | 456 W/m² | - |
| 1777912677 | 17.78° C | 46% | 1011.4 hPa | 0 mm | - | 826 W/m² | - |
| 1777912373 | 17.78° C | 46% | 1011.6 hPa | 0 mm | - | 259 W/m² | - |
| 1777912070 | 17.22° C | 46% | 1011.7 hPa | 0 mm | - | 179 W/m² | - |
| 1777911766 | 17.22° C | 46% | 1011.9 hPa | 0 mm | - | 174 W/m² | - |
| 1777911463 | 17.22° C | 46% | 1011.5 hPa | 0 mm | - | 210 W/m² | - |
| 1777911159 | 17.78° C | 45% | 1012.3 hPa | 0 mm | - | 219 W/m² | - |
| 1777910857 | 17.78° C | 45% | 1012.1 hPa | 0 mm | - | 242 W/m² | - |
| 1777910553 | 17.22° C | 45% | 1012 hPa | 0 mm | - | 200 W/m² | - |
| 1777910251 | 17.78° C | 45% | 1012.1 hPa | 0 mm | - | 346 W/m² | - |
| 1777909948 | 17.22° C | 45% | 1012 hPa | 0 mm | - | 742 W/m² | - |
| 1777909645 | 17.78° C | 45% | 1012.1 hPa | 0 mm | - | 231 W/m² | - |
| 1777909342 | 17.78° C | 44% | 1012.2 hPa | 0 mm | - | 395 W/m² | - |
| 1777909040 | 17.22° C | 45% | 1012.3 hPa | 0 mm | - | 699 W/m² | - |
| 1777908737 | 17.22° C | 45% | 1012.3 hPa | 0 mm | - | 522 W/m² | - |
| 1777908434 | 16.67° C | 46% | 1012.2 hPa | 0 mm | - | 279 W/m² | - |
| 1777908131 | 17.22° C | 47% | 1012.3 hPa | 0 mm | - | 302 W/m² | - |
| 1777907827 | 16.11° C | 49% | 1012.5 hPa | 0 mm | - | 795 W/m² | - |
| 1777907522 | 16.11° C | 51% | 1012.6 hPa | 0 mm | - | 528 W/m² | - |
* Rain latest hour (hover to see other rain measurements)
** Current wind speed in m/s (hover to see current wind gust speed)